EN

Hourly Weather Sangaria

Today, 27 November, Friday

Time Temperature Precipitation Wind Pressure Humidity
00:00 +15°C° 0 mm 2 mps 749 mmHg 50%
01:00 +14°C° 0 mm 3 mps 749 mmHg 52%
02:00 +13°C° 0 mm 3 mps 748 mmHg 55%
03:00 +13°C° 0 mm 3 mps 748 mmHg 57%
04:00 +13°C° 0 mm 3 mps 748 mmHg 59%
05:00 +12°C° 0 mm 3 mps 748 mmHg 61%
06:00 +13°C° 0 mm 3 mps 749 mmHg 58%
07:00 +13°C° 0 mm 3 mps 749 mmHg 55%
08:00 +14°C° 0 mm 3 mps 750 mmHg 52%
09:00 +18°C° 0 mm 3 mps 750 mmHg 44%
10:00 +20°C° 0 mm 3 mps 750 mmHg 36%
11:00 +24°C° 0 mm 3 mps 751 mmHg 28%
12:00 +25°C° 0 mm 3 mps 750 mmHg 25%
13:00 +26°C° 0 mm 4 mps 749 mmHg 22%
14:00 +27°C° 0 mm 4 mps 748 mmHg 19%
15:00 +26°C° 0 mm 3 mps 748 mmHg 21%
16:00 +24°C° 0 mm 3 mps 748 mmHg 22%
17:00 +21°C° 0 mm 2 mps 747 mmHg 24%
18:00 +20°C° 0 mm 2 mps 748 mmHg 26%
19:00 +19°C° 0 mm 2 mps 748 mmHg 28%
20:00 +18°C° 0 mm 2 mps 749 mmHg 30%
21:00 +17°C° 0 mm 2 mps 749 mmHg 31%
22:00 +17°C° 0 mm 2 mps 749 mmHg 31%
23:00 +16°C° 0 mm 3 mps 749 mmHg 32%

Tomorrow, 28 November, Saturday

Time Temperature Precipitation Wind Pressure Humidity
00:00 +16°C° 0 mm 3 mps 748 mmHg 34%
01:00 +14°C° 0 mm 3 mps 748 mmHg 36%
02:00 +14°C° 0 mm 3 mps 747 mmHg 37%
03:00 +14°C° 0 mm 2 mps 747 mmHg 38%
04:00 +14°C° 0 mm 2 mps 747 mmHg 39%
05:00 +13°C° 0 mm 2 mps 747 mmHg 40%
06:00 +14°C° 0 mm 2 mps 748 mmHg 38%
07:00 +15°C° 0 mm 2 mps 748 mmHg 36%
08:00 +16°C° 0 mm 2 mps 748 mmHg 34%
09:00 +19°C° 0 mm 2 mps 749 mmHg 28%
10:00 +21°C° 0 mm 3 mps 749 mmHg 23%
11:00 +25°C° 0 mm 3 mps 749 mmHg 17%
12:00 +26°C° 0 mm 3 mps 748 mmHg 15%
13:00 +28°C° 0 mm 3 mps 747 mmHg 13%
14:00 +29°C° 0 mm 4 mps 746 mmHg 11%
15:00 +27°C° 0 mm 3 mps 746 mmHg 13%
16:00 +25°C° 0 mm 2 mps 746 mmHg 14%
17:00 +23°C° 0 mm 2 mps 745 mmHg 15%
18:00 +22°C° 0 mm 1 mps 745 mmHg 16%
19:00 +20°C° 0 mm 1 mps 745 mmHg 17%
20:00 +19°C° 0 mm 1 mps 746 mmHg 18%
21:00 +19°C° 0 mm 1 mps 746 mmHg 19%
22:00 +19°C° 0 mm 1 mps 746 mmHg 19%
23:00 +18°C° 0 mm 1 mps 746 mmHg 19%

Day after tomorrow, 29 November, Sunday

Time Temperature Precipitation Wind Pressure Humidity
00:00 +18°C° 0 mm 1 mps 745 mmHg 20%
01:00 +16°C° 0 mm 1 mps 745 mmHg 20%
02:00 +15°C° 0 mm 1 mps 745 mmHg 21%
03:00 +15°C° 0 mm 1 mps 745 mmHg 21%
04:00 +14°C° 0 mm 1 mps 745 mmHg 22%
05:00 +14°C° 0 mm 1 mps 745 mmHg 22%
06:00 +15°C° 0 mm 1 mps 746 mmHg 21%
07:00 +16°C° 0 mm 1 mps 746 mmHg 20%
08:00 +18°C° 0 mm 1 mps 747 mmHg 18%
09:00 +21°C° 0 mm 1 mps 747 mmHg 16%
10:00 +24°C° 0 mm 2 mps 747 mmHg 14%
11:00 +26°C° 0 mm 2 mps 747 mmHg 11%
12:00 +27°C° 0 mm 2 mps 746 mmHg 10%
13:00 +28°C° 0 mm 2 mps 746 mmHg 9%
14:00 +30°C° 0 mm 2 mps 745 mmHg 8%
15:00 +28°C° 0 mm 2 mps 745 mmHg 9%
16:00 +26°C° 0 mm 2 mps 745 mmHg 10%
17:00 +24°C° 0 mm 1 mps 744 mmHg 11%
18:00 +22°C° 0 mm 1 mps 744 mmHg 12%
19:00 +21°C° 0 mm 1 mps 745 mmHg 13%
20:00 +20°C° 0 mm 1 mps 745 mmHg 14%
21:00 +19°C° 0 mm 1 mps 745 mmHg 14%
22:00 +19°C° 0 mm 1 mps 745 mmHg 15%
23:00 +16°C° 0 mm 0 mps 745 mmHg 15%

30 November, Monday

Time Temperature Precipitation Wind Pressure Humidity
00:00 +16°C° 0 mm 0 mps 745 mmHg 16%
01:00 +16°C° 0 mm 0 mps 745 mmHg 16%
02:00 +15°C° 0 mm 0 mps 745 mmHg 17%
03:00 +16°C° 0 mm 1 mps 744 mmHg 17%
04:00 +16°C° 0 mm 1 mps 744 mmHg 17%
05:00 +15°C° 0 mm 1 mps 744 mmHg 18%
06:00 +15°C° 0 mm 0 mps 745 mmHg 17%
07:00 +17°C° 0 mm 0 mps 745 mmHg 16%
08:00 +18°C° 0 mm 0 mps 746 mmHg 16%
09:00 +20°C° 0 mm 0 mps 746 mmHg 13%
10:00 +25°C° 0 mm 1 mps 746 mmHg 11%
11:00 +28°C° 0 mm 1 mps 746 mmHg 9%
12:00 +29°C° 0 mm 1 mps 746 mmHg 9%
13:00 +30°C° 0 mm 2 mps 745 mmHg 9%
14:00 +30°C° 0 mm 2 mps 744 mmHg 9%
15:00 +28°C° 0 mm 2 mps 744 mmHg 10%
16:00 +27°C° 0 mm 2 mps 744 mmHg 11%
17:00 +25°C° 0 mm 1 mps 744 mmHg 13%
18:00 +24°C° 0 mm 1 mps 744 mmHg 14%
19:00 +22°C° 0 mm 1 mps 744 mmHg 15%
20:00 +19°C° 0 mm 0 mps 745 mmHg 16%
21:00 +19°C° 0 mm 0 mps 745 mmHg 17%
22:00 +18°C° 0 mm 0 mps 745 mmHg 18%
23:00 +18°C° 0 mm 0 mps 745 mmHg 18%

1 December, Tuesday

Time Temperature Precipitation Wind Pressure Humidity
00:00 +17°C° 0 mm 0 mps 745 mmHg 19%
01:00 +17°C° 0 mm 0 mps 745 mmHg 19%
02:00 +16°C° 0 mm 0 mps 745 mmHg 20%
03:00 +16°C° 0 mm 0 mps 744 mmHg 20%
04:00 +16°C° 0 mm 0 mps 744 mmHg 21%
05:00 +16°C° 0 mm 1 mps 744 mmHg 21%
06:00 +16°C° 0 mm 0 mps 745 mmHg 20%
07:00 +17°C° 0 mm 0 mps 745 mmHg 20%
08:00 +18°C° 0 mm 0 mps 746 mmHg 19%
09:00 +23°C° 0 mm 1 mps 746 mmHg 16%
10:00 +26°C° 0 mm 1 mps 746 mmHg 14%
11:00 +28°C° 0 mm 1 mps 747 mmHg 11%
12:00 +29°C° 0 mm 1 mps 746 mmHg 11%
13:00 +30°C° 0 mm 2 mps 745 mmHg 10%
14:00 +31°C° 0 mm 2 mps 744 mmHg 10%
15:00 +29°C° 0 mm 2 mps 744 mmHg 11%
16:00 +27°C° 0 mm 1 mps 744 mmHg 13%
17:00 +25°C° 0 mm 1 mps 744 mmHg 14%
18:00 +24°C° 0 mm 1 mps 744 mmHg 16%
19:00 +22°C° 0 mm 1 mps 744 mmHg 17%
20:00 +21°C° 0 mm 1 mps 744 mmHg 18%
21:00 +19°C° 0 mm 0 mps 744 mmHg 19%
22:00 +18°C° 0 mm 0 mps 745 mmHg 19%
23:00 +18°C° 0 mm 0 mps 745 mmHg 20%

2 December, Wednesday

Time Temperature Precipitation Wind Pressure Humidity
00:00 +17°C° 0 mm 0 mps 744 mmHg 20%
01:00 +19°C° 0 mm 1 mps 744 mmHg 20%
02:00 +18°C° 0 mm 1 mps 744 mmHg 21%
03:00 +18°C° 0 mm 1 mps 744 mmHg 21%
04:00 +18°C° 0 mm 1 mps 744 mmHg 22%
05:00 +16°C° 0 mm 1 mps 744 mmHg 23%
06:00 +18°C° 0 mm 1 mps 744 mmHg 22%
07:00 +19°C° 0 mm 1 mps 745 mmHg 21%
08:00 +20°C° 0 mm 1 mps 745 mmHg 20%
09:00 +23°C° 0 mm 1 mps 745 mmHg 17%
10:00 +26°C° 0 mm 1 mps 745 mmHg 14%
11:00 +28°C° 0 mm 2 mps 745 mmHg 11%
12:00 +30°C° 0 mm 2 mps 745 mmHg 11%
13:00 +31°C° 0 mm 3 mps 744 mmHg 10%
14:00 +33°C° 0 mm 3 mps 743 mmHg 9%
15:00 +30°C° 0 mm 3 mps 743 mmHg 11%
16:00 +28°C° 0 mm 2 mps 742 mmHg 12%
17:00 +25°C° 0 mm 2 mps 742 mmHg 14%
18:00 +24°C° 0 mm 2 mps 742 mmHg 15%
19:00 +23°C° 0 mm 2 mps 742 mmHg 16%
20:00 +21°C° 0 mm 2 mps 743 mmHg 17%
21:00 +20°C° 0 mm 2 mps 743 mmHg 18%
22:00 +20°C° 0 mm 2 mps 743 mmHg 19%
23:00 +19°C° 0 mm 2 mps 743 mmHg 19%
Show more